Regional Weather Roundup
Issued by NWS

Home | Current Version | Previous Version | Text Only | Print | Product List | Glossary Off
Versions: 1 2 3 4 5 6 7 8 9 10 11 12 13 14 15 16 17 18 19 20 21 22 23 24 25 26 27 28 29 30 31 32 33 34 35 36 37 38 39 40 41 42 43 44 45 46 47 48 49 50

000
ASUS45 KTFX 270310
RWRMT
MONTANA REGIONAL WEATHER ROUNDUP
NATIONAL WEATHER SERVICE GREAT FALLS MT
900 PM MDT FRI MAY 26 2017

NOTE: "FAIR" INDICATES FEW OR NO CLOUDS BELOW 12000 FEET WITH NO
SIGNIFICANT WEATHER AND/OR OBSTRUCTIONS TO VISIBILITY.

MTZ001>007-043-270400-
WEST OF THE DIVIDE

CITY           SKY/WX    TMP DP  RH WIND       PRES   REMARKS
KALISPELL      CLEAR     62  42  47 CALM      29.93R
MISSOULA       MOCLDY    62  38  40 CALM      29.97R
BUTTE          PTCLDY    53  30  41 W7        30.03R
MULLAN PASS    CLEAR     49  31  49 VRB6      30.07R
ANACONDA         N/A     52  36  54 SW5       30.01R
DEER LODGE       N/A     52  37  58 NW3       30.03R
EUREKA           N/A     66  43  42 S3        29.92R
HAMILTON         N/A     61  36  39 W6        30.00R
RONAN            N/A     66  38  35 W1        30.01R
$$

MTZ008-052>055-270400-
SOUTHWEST MONTANA

CITY           SKY/WX    TMP DP  RH WIND       PRES   REMARKS
BOZEMAN        CLOUDY    54  37  52 W12       30.00R
DILLON         CLOUDY    54  30  40 E7        30.00R
ENNIS          PTCLDY    48  32  53 N10       30.05R
THREE FORKS      N/A     57  34  42 N12       30.01R
$$

MTZ009-010-012-014-046-048-049-054-270400-
EAST SLOPES AND CENTRAL MONTANA

CITY           SKY/WX    TMP DP  RH WIND       PRES   REMARKS
CUT BANK       PTCLDY    53  37  54 NW8       29.94R
GREAT FALLS    MOCLDY    53  39  59 SW9       29.96R
MALMSTROM AFB  MOCLDY    54  40  59 SW10      29.95R
HELENA         MOCLDY    54  43  66 SW12      29.98F
CHOTEAU          N/A     57  36  44 W3        29.98R
CONRAD           N/A     61  47  59 W1        29.98R
$$

MTZ011-013-016-021-045-047-050-051-270400-
NORTH CENTRAL MONTANA

CITY           SKY/WX    TMP DP  RH WIND       PRES   REMARKS
HAVRE          MOCLDY    56  40  55 S9        29.90R
LEWISTOWN      PTCLDY    52  35  52 SE5       29.97R
N BAR RANCH      N/A     48  34  57 NW8       30.01R
CHINOOK          N/A     55  43  62 S3        29.89S
FORT BENTON      N/A     63  30  29 CALM      29.93R
$$

MTZ017>020-022>027-061-062-270400-
NORTHEAST MONTANA

CITY           SKY/WX    TMP DP  RH WIND       PRES   REMARKS
GLASGOW        CLEAR     56  39  53 NW6       29.87R
JORDAN           N/A     56  36  47 N9        29.92R
SIDNEY         MOCLDY    56  38  50 W10       29.86R
WOLF POINT     PTCLDY    58  38  47 W6        29.86S
MALTA          MOCLDY    55  41  58 W7        29.89S
PLENTYWOOD       N/A     55  36  47 W7        29.82R
POPLAR           N/A     57  37  47 W7        29.86R
$$

MTZ028>42-056>058-270400-
SOUTHCENTRAL AND SOUTHEAST MONTANA

CITY           SKY/WX    TMP DP  RH WIND       PRES   REMARKS
BAKER          CLOUDY    54  37  52 SW8       29.91R
BILLINGS       CLOUDY    57  34  41 S6        29.96R
LIVINGSTON     MOCLDY    51  38  60 E3        30.00R
MILES CITY     CLOUDY    60  35  39 NW6       29.90R
BIG TIMBER     PTCLDY    50  36  57 SE3       30.02S
FORSYTH          N/A     61  34  36 CALM      29.92R
LAUREL           N/A     55  34  45 CALM      29.97R
ROUNDUP          N/A     58  30  34 CALM      29.88R
$$

REGIONAL REPORTS...DAKOTAS

CITY           SKY/WX    TMP DP  RH WIND       PRES   REMARKS
WILLISTON      CLEAR     56  39  53 W9        29.83R
MINOT          CLEAR     58  35  42 W7        29.76R
DICKINSON      CLOUDY    50  33  52 W7        29.85R
BEACH          MOCLDY    54  36  50 W7        29.91R
CROSBY           N/A     55  39  54 W12       29.79R
TIOGA            N/A     55  37  50 W12       29.82R
WATFORD CITY     N/A     59  37  44 NW9       29.83R
BISMARCK       CLOUDY    57  37  47 SW5       29.83R
GRAND FORKS    PTCLDY    58  43  57 W8        29.75R
FARGO          CLEAR     59  43  55 W8        29.80R
BUFFALO SD       N/A     56  39  53 NW7       29.86R
RAPID CITY     LGT RAIN  52  47  83 S5        29.96R
$$

REGIONAL REPORTS...WYOMING/IDAHO/WASHINGTON

CITY           SKY/WX    TMP DP  RH WIND       PRES   REMARKS
GILLETTE       CLOUDY    47  46  97 W8        29.99R
SHERIDAN       LGT RAIN  47  42  83 SW8       30.01R
BUFFALO WY     LGT RAIN  45  39  79 NW10      30.03R
CODY           CLOUDY    45  38  76 SW7       30.03R
YELLOWSTONE LA   N/A     34  34 100 NW3       30.09R
IDAHO FALLS    CLOUDY    45  43  93 CALM      30.07R
SALMON         MOCLDY    54  39  58 S7        29.96R
BOISE          CLEAR     70  34  26 NW10      29.96R
SPOKANE        PTCLDY    69  39  33 W10       29.96R
$$

REGIONAL REPORTS...ALBERTA

CITY           SKY/WX    TMP DP  RH WIND       PRES   REMARKS
EDMONTON       CLEAR     64  41  42 N6        29.79R
CALGARY        MOCLDY    64  34  32 NW3       29.89R
LETHBRIDGE     PTCLDY    59  39  47 W7        29.89R
MEDICINE HAT   PTCLDY    57  41  54 SW9       29.83R
WATERTON GATE    N/A     54  34  47 SW6         N/A
MILK RIVER       N/A     55  43  62 W5          N/A
ONEFOUR          N/A     55  39  54 W3          N/A
$$

REGIONAL REPORTS...SASKATCHEWAN

CITY           SKY/WX    TMP DP  RH WIND       PRES   REMARKS
SWIFT CURRENT  LGT RAIN  50  46  87 SW9       29.82R
REGINA         MOCLDY    54  34  47 W10       29.73S
SASKATOON      PTCLDY    57  37  47 N7        29.72R
CYPRESS HILLS    N/A     48  34  57 W3          N/A
VAL MARIE        N/A     48  36  61 W5          N/A
ROCKGLEN         N/A     50  39  66 W16         N/A
ASSINIBOIA       N/A     63  41  45 NW5         N/A
$$



USA.gov is the U.S. government's official web portal to all federal, state and local government web resources and services.